Location: Forest Hills Gardens
(40.7147°N, 73.8403°W)
Time: 03:20:10
(UTC+00:00)

Daily predictions for brighter satellites

Satellite Brightness Start Highest point End
(mag) Time Altitude Azimuth Time Altitude Azimuth Time Altitude Azimuth
Aureole 3 4.2 00:01:42 10° SSE 00:05:32 37° E 00:10:19 10° NNE
GEOS 3 Rocket 4.2 00:01:15 10° SSE 00:06:18 60° WSW 00:11:27 10° NW
STARLINK-1126 4.2 00:02:40 10° WNW 00:06:43 55° SW 00:10:45 10° SSE
STARLINK-1119 4.4 00:05:01 10° NW 00:08:56 39° NNE 00:12:10 14° E
ARGOS Delta rocket 4.1 00:04:15 10° SSE 00:09:21 70° ENE 00:14:44 10° N
Cosmos 1943 Rocket 2.6 00:04:36 10° N 00:09:52 42° ENE 00:14:54 11° SE
SJ-6B 3.7 00:06:30 10° SE 00:10:09 33° ENE 00:13:51 10° N
STARLINK-1082 4.4 00:07:40 10° WNW 00:11:41 49° SW 00:15:40 10° SSE
STARLINK-1114 4.3 00:09:58 10° NW 00:13:56 42° NNE 00:16:58 16° E
MONITOR-E 4.2 00:15:53 14° SE 00:17:50 39° ENE 00:20:21 10° N
Cosmos 2084 Rocket 4.0 00:14:05 10° NNW 00:18:25 46° NE 00:21:37 17° ESE
STARLINK-1130 (DARKSAT) 4.2 00:14:56 10° NW 00:18:56 45° NNE 00:21:44 18° E
Cosmos 1758 3.3 00:15:03 10° S 00:19:08 84° E 00:23:15 10° N
SL-14 R/B 3.7 00:15:32 10° NNW 00:19:33 66° W 00:23:30 10° S
FREGAT/IRIS 2.4 00:18:33 12° SSE 00:21:00 53° ENE 00:23:40 10° N
Cosmos 1437 4.4 00:19:19 10° NNE 00:21:09 15° ENE 00:21:09 15° ENE
Cosmos 1943 3.7 00:16:49 10° S 00:21:57 37° ESE 00:27:07 10° NE
CZ-4 R/B 4.3 00:19:42 10° SW 00:22:24 18° W 00:25:06 10° NW
H-2A R/B 3.9 00:11:09 10° W 00:23:21 24° SW 00:27:07 10° SSE
STARLINK-1084 4.1 00:19:53 10° NW 00:23:55 49° NNE 00:26:31 20° E
Cosmos 292 Rocket 4.1 00:21:49 10° N 00:26:27 46° ENE 00:29:55 17° SE
STARLINK-1098 3.9 00:24:51 10° NW 00:28:55 53° NE 00:31:18 23° ESE
ISS -2.7 00:26:43 10° NW 00:29:52 35° NNE 00:31:25 22° ENE
IRIDIUM 114 4.5 00:26:23 10° N 00:31:29 51° E 00:36:32 10° SSE
Ariane Rocket 3.1 00:26:52 10° S 00:31:57 80° WSW 00:37:02 10° NNW
BREEZE-M DEB (TANK) 3.2 00:26:10 10° WSW 00:32:59 53° NNW 00:35:32 11° NE
STARLINK-1123 3.8 00:29:49 10° NW 00:33:55 57° NE 00:36:05 25° ESE
Meteor 2-15 Rocket 4.4 00:29:11 10° S 00:35:15 85° E 00:41:21 10° N
SL-4 R/B 2.5 00:32:27 10° SSW 00:35:22 27° SE 00:35:25 27° SE
Aureole 2 Rocket 2.7 00:32:06 10° N 00:35:30 46° ENE 00:36:50 29° ESE
MOS 1 4.2 00:32:20 10° SSE 00:37:58 85° ENE 00:43:40 10° NNW
STARLINK-1097 3.7 00:34:46 10° NW 00:38:53 63° NE 00:40:51 29° ESE
Abrixas rocket 3.9 00:37:17 10° WNW 00:39:50 25° NNW 00:42:03 12° NE
IRIDIUM 103 4.3 00:35:30 10° N 00:40:41 63° E 00:45:51 10° SSE
SL-16 R/B 4.0 00:37:30 10° WSW 00:42:34 33° WNW 00:47:40 10° N
Resurs 01 Rocket 2.6 00:41:45 25° E 00:42:44 27° ENE 00:46:28 10° N
SPOT 3 Rocket 3.7 00:39:41 18° SE 00:43:29 54° ENE 00:48:33 10° N
STARLINK-1099 3.6 00:39:44 10° NW 00:43:52 68° NE 00:45:39 32° ESE
NOSS 3-3 (A) 3.8 00:39:44 10° SSW 00:45:30 87° ESE 00:51:58 10° NE
NOSS 3-3 (C) 3.8 00:39:51 10° SSW 00:45:36 86° ESE 00:52:04 10° NE
Cosmos 2184 Rocket 4.1 00:40:52 10° N 00:47:04 56° E 00:51:48 17° SSE
STARLINK-1104 3.6 00:44:43 10° NW 00:48:52 75° NE 00:50:27 36° ESE
CZ-2C R/B 3.7 00:44:32 10° NNE 00:49:16 71° ESE 00:53:53 10° S
SL-8 R/B 4.2 00:45:17 10° NW 00:49:55 48° NNE 00:52:09 27° E
Cosmos 2058 Rocket 4.5 00:51:54 22° ENE 00:51:54 22° ENE 00:54:32 10° NE
Cosmos 1726 2.0 00:48:07 10° S 00:51:49 73° E 00:55:34 10° NNE
Meteor 1-21 Rocket 4.1 00:47:05 10° N 00:52:40 86° E 00:57:54 12° S
STARLINK-1144 3.5 00:49:41 10° NW 00:53:51 82° NE 00:55:13 41° ESE
CZ-2C R/B 3.3 00:50:07 10° S 00:55:05 63° WSW 00:59:54 10° NNW
Cosmos 1953 2.7 00:53:25 10° SSW 00:57:20 65° W 01:01:19 10° N
STARLINK-1103 3.5 00:54:39 10° NW 00:58:49 89° NE 01:00:00 46° SE
IRIDIUM 106 4.3 00:53:44 10° N 00:58:58 88° W 01:04:11 10° S
Cosmos 1818 3.5 00:54:58 10° SSW 01:00:19 63° ESE 01:05:42 10° NE
CZ-2C R/B 2.6 00:55:20 10° NNE 01:00:25 54° E 01:04:44 14° S
Cosmos 1703 3.7 00:58:32 10° N 01:02:12 42° ENE 01:02:12 42° ENE
ARGOS 3.6 00:57:50 10° S 01:03:10 60° W 01:08:30 10° NNW
Cosmos 1656 Rocket 4.2 00:57:59 10° N 01:03:20 41° ENE 01:04:49 34° E
STARLINK-1101 3.5 00:59:38 10° NW 01:03:48 84° SW 01:04:47 51° SE
Cosmos 1603 3.8 00:58:58 10° SSW 01:04:35 76° WNW 01:10:14 10° NNE
MetOp-A 4.0 01:03:38 24° SSE 01:06:56 82° ENE 01:12:19 10° NNW
SL-08 RB Rocket 3.9 01:03:35 17° S 01:06:58 69° WSW 01:11:32 10° NNW
Cosmos 2154 Rocket 4.2 01:02:33 10° N 01:08:47 53° ENE 01:11:12 35° SE
STARLINK-1102 3.6 01:04:39 10° NW 01:08:48 77° SW 01:09:36 55° SSE
Meteor 1-16 Rocket 4.0 01:04:54 10° S 01:10:14 90° ESE 01:15:45 10° N
Cosmos 407 Rocket 3.9 01:10:48 39° E 01:10:48 39° E 01:15:03 10° NE
Cosmos 1726 Rocket 3.5 01:10:35 48° SSE 01:11:34 64° E 01:15:57 10° NNE
ATLAS 2AS CENTAUR R/B 3.5 01:04:35 10° NNW 01:11:41 40° NE 01:14:20 30° E
MOS 1 Rocket 3.5 01:07:08 10° NNE 01:12:30 75° ESE 01:17:55 10° S
Cosmos 614 Rocket 4.0 01:10:28 27° SSE 01:13:04 53° ESE 01:18:09 10° NNE
USA 234 3.2 01:07:07 10° NE 01:13:42 88° SE 01:20:15 10° SW
STARLINK-1111 3.7 01:09:37 10° NW 01:13:45 70° SW 01:14:22 58° S
Nadezhda 1 Rocket 3.9 01:07:59 10° S 01:14:19 70° E 01:20:41 10° NNE
SL-24 R/B 4.4 01:12:44 10° N 01:16:56 58° WNW 01:20:42 10° SSW
Cosmos 1992 Rocket 4.3 01:13:32 10° NNW 01:18:42 64° WSW 01:21:25 27° S
STARLINK-1073 3.7 01:14:36 10° WNW 01:18:43 63° SW 01:19:08 58° S
Cosmos 1825 Rocket 3.5 01:15:40 10° N 01:20:05 82° W 01:21:16 48° S
H-2A R/B 3.7 01:17:05 10° SSW 01:21:48 33° W 01:26:27 10° NNW
STARLINK-1121 3.9 01:19:37 10° WNW 01:23:41 57° SW 01:23:56 56° SSW
Cosmos 1908 3.3 01:26:59 71° N 01:26:59 71° N 01:30:28 10° N
STARLINK-1106 4.1 01:24:36 10° WNW 01:28:38 51° SW 01:28:42 51° SW
Cosmos 1758 Rocket 4.3 01:27:13 10° NNW 01:31:25 49° W 01:33:02 32° SSW
STARLINK-1112 4.3 01:29:36 10° WNW 01:33:28 46° SW 01:33:28 46° SW
Cosmos 1953 Rocket 3.6 01:34:06 10° N 01:38:35 77° W 01:38:41 77° WSW
Cosmos 1606 Rocket 4.4 01:36:20 18° SSW 01:39:26 48° W 01:43:46 10° N
Cosmos 2369 Rocket 3.1 01:39:27 10° NW 01:44:47 43° WSW 01:47:08 29° SSW
Meteor 1-11 4.2 01:42:10 10° N 01:47:58 86° W 01:48:49 66° S
Cosmos 2228 4.3 01:46:33 23° SW 01:48:44 39° WNW 01:52:48 10° N
Cosmos 1943 Rocket 3.9 01:48:48 10° NW 01:53:21 26° WSW 01:56:28 16° SSW
Aureole 1 Rocket 4.5 01:51:51 10° SSW 01:59:56 73° WNW 02:06:29 10° NNE
ISS -0.7 02:03:40 10° WNW 02:04:24 15° W 02:04:24 15° W
APEX 4.3 02:00:33 10° NNW 02:06:44 75° NNE 02:06:44 75° NNE
Resurs 01 Rocket 3.4 02:19:19 26° W 02:19:19 26° W 02:22:53 10° NW
Cosmos 2341 Rocket 4.0 02:12:58 10° N 02:19:20 79° W 02:19:20 79° W
Spot 2 Rocket 4.3 02:24:21 48° WNW 02:24:21 48° WNW 02:28:26 10° NNW
NOSS 3-4 (A) 3.8 02:23:17 10° NW 02:30:24 83° WSW 02:30:24 83° WSW
NOSS 3-4 (C) 3.8 02:23:23 10° NW 02:30:30 84° WSW 02:30:30 84° WSW
COSMOS 2455 3.5 02:32:21 10° NNW 02:36:47 50° N 02:36:47 50° N
Cosmos 2218 Rocket 4.5 02:35:04 10° N 02:39:50 56° NNW 02:39:50 56° NNW
Terra 4.1 02:59:57 21° NNW 02:59:57 21° NNW 03:01:32 10° NNW
ATLAS 2AS CENTAUR R/B 3.5 02:55:44 10° NW 03:01:46 45° W 03:01:46 45° W
CZ-4C R/B 4.2 03:40:35 10° NNW 03:45:52 31° NNE 03:45:52 31° NNE
Cosmos 2333 Rocket 4.3 06:12:18 10° N 06:15:41 22° NE 06:15:41 22° NE
SL-16 R/B 3.9 06:41:20 32° NNW 06:41:20 32° NNW 06:44:26 10° NNW
ADEOS II 4.0 06:41:12 10° NNE 06:43:53 25° NE 06:43:53 25° NE
Resurs 1-4 Rocket 4.0 06:42:59 10° NNE 06:45:08 25° N 06:45:08 25° N
CZ-2D R/B 3.8 06:52:46 10° N 06:55:23 29° N 06:55:23 29° N
Cosmos 2219 Rocket 3.6 07:13:52 10° NNW 07:16:50 32° N 07:16:50 32° N
COSMOS 2428 3.8 07:14:56 10° NNW 07:18:31 38° N 07:18:31 38° N
Cosmos 2227 Rocket 4.1 07:19:47 20° ESE 07:20:39 21° E 07:24:45 10° NE
USA 267 3.2 07:22:05 10° NE 07:28:21 79° N 07:28:21 79° N
Meteor 1-27 Rocket 4.2 07:45:06 51° NNW 07:45:06 51° NNW 07:49:30 10° N
USA 238 DEB 4.5 07:42:40 36° SE 07:44:05 40° ESE 07:50:21 10° NE
USA 238 4.5 07:42:43 36° SE 07:44:11 40° ESE 07:50:27 10° NE
ARIANE 5 R/B 2.9 07:43:08 10° NNE 07:47:29 63° NNE 07:47:29 63° NNE
Timation 2 Rocket 4.1 07:56:29 66° W 07:56:51 68° WNW 08:03:43 10° NNE
BREEZE-M DEB (TANK) 4.4 07:58:33 34° N 07:58:33 34° N 08:03:16 10° ENE
Cosmos 1703 Rocket 4.2 08:01:00 56° ENE 08:01:00 56° ENE 08:05:04 10° NNE
Cosmos 2333 Rocket 3.9 07:55:53 10° NNW 07:57:37 20° NW 07:57:37 20° NW
USA 234 3.9 07:55:19 10° ESE 08:01:38 55° NE 08:07:59 10° NW
CZ-2C R/B 3.8 07:59:31 10° NNE 08:02:43 46° NE 08:02:43 46° NE
SJ 16-02 3.4 08:06:07 19° NNW 08:06:07 19° NNW 08:07:46 10° N
CZ-4B R/B 3.7 08:08:01 18° ESE 08:09:43 26° ENE 08:12:40 10° NNE
NOSS 3-2 (A) 3.7 08:09:47 45° SSE 08:11:10 56° ESE 08:17:17 10° NE
Cosmos 1743 3.6 08:11:56 10° N 08:14:52 47° NNE 08:14:52 47° NNE
H-2A R/B 4.0 08:19:12 18° NNW 08:19:12 18° NNW 08:20:25 10° NNW
Okean 1-7 3.1 08:17:22 76° E 08:17:22 76° E 08:21:40 10° N
STARLINK-1024 4.4 08:19:19 45° ESE 08:19:19 45° ESE 08:23:00 10° ENE
BREEZE-M DEB (TANK) 2.9 08:20:03 48° ESE 08:20:03 48° ESE 08:22:00 10° ENE
Cosmos 2237 Rocket 2.3 08:14:06 10° NNW 08:19:47 73° ENE 08:25:27 10° SSE
Cosmos 1908 Rocket 4.2 08:17:37 10° NNW 08:20:45 45° NNW 08:20:45 45° NNW
STARLINK-1035 4.1 08:24:06 50° SE 08:24:06 50° SE 08:28:00 10° ENE
Cosmos 1937 Rocket 4.3 08:25:27 35° NW 08:25:27 35° NW 08:29:48 10° N
ADEOS II 3.2 08:21:01 10° N 08:24:49 29° NW 08:24:49 29° NW
Tsikada Rocket 4.4 08:25:30 43° W 08:25:50 43° WNW 08:31:57 10° N
Cosmos 1634 Rocket 3.8 08:20:34 10° N 08:26:43 73° W 08:29:46 32° S
Resurs 1-4 Rocket 4.4 08:25:51 10° NW 08:26:13 10° NW 08:26:13 10° NW
STARLINK-1032 3.9 08:28:53 56° SE 08:28:57 56° SE 08:33:00 10° ENE
CZ-2D R/B 4.3 08:25:03 10° N 08:28:14 39° NW 08:28:14 39° NW
CENTAUR R/B 3.5 08:25:58 19° S 08:29:34 38° ESE 08:35:36 10° NE
Lacrosse 5 rocket 3.4 08:32:12 15° NNW 08:32:20 15° NNW 08:34:39 10° NNE
STARLINK-1011 3.7 08:33:40 60° SSE 08:33:54 62° SE 08:38:01 10° ENE
deb Chang Zheng 4 3.4 08:30:17 10° NNE 08:34:37 89° WNW 08:35:20 62° SSW
Sich 1 Rocket 4.0 08:33:09 10° N 08:37:30 61° E 08:41:50 10° SSE
Cosmos 2297 Rocket 2.1 08:36:42 45° SW 08:38:28 76° WNW 08:44:10 10° NNE
Cosmos 372 Rocket 4.0 08:37:34 51° WSW 08:38:35 62° WNW 08:43:47 10° NNE
ATLAS CENTAUR R/B 3.6 08:39:53 15° ENE 08:39:53 15° ENE 08:40:22 10° ENE
STARLINK-1036 3.6 08:38:27 62° S 08:38:52 68° SE 08:43:00 10° NE
NOSS 3-2 (C) 3.8 08:36:33 26° S 08:39:38 56° ESE 08:45:47 10° NE
Cosmos 2219 3.4 08:38:46 45° WSW 08:40:08 56° WNW 08:45:48 10° NNE
Cosmos 1689 Rocket 4.2 08:39:28 10° SE 08:42:06 28° ENE 08:44:45 10° N
Cosmos 2142 Rocket 4.4 08:35:52 10° N 08:42:14 75° W 08:48:29 10° S
Gblst 52 Del rocket 4.1 08:37:25 17° WNW 08:42:21 72° SW 08:47:57 10° SE
STARLINK-1044 3.6 08:43:14 61° SSW 08:43:51 75° SE 08:48:00 10° NE
Okean 2 Rocket 4.3 08:39:43 10° N 08:44:01 43° ENE 08:48:18 10° SSE
STARLINK-60 4.3 08:47:50 30° SSE 08:47:50 30° SSE 08:49:39 10° SE
IDEFIX/ARIANE 42P 2.6 08:43:02 10° N 08:48:10 62° WNW 08:50:06 37° SW
STARLINK-1047 3.5 08:48:00 56° SW 08:48:48 83° SE 08:52:58 10° NE
NOSS 0 Rocket 4.1 08:44:10 10° NW 08:49:59 45° WSW 08:55:46 10° S
STARLINK-1037 3.5 08:49:25 55° SW 08:50:17 85° SE 08:54:26 10° NE
BREEZE M DEB (TANK) 2.4 08:53:11 51° N 08:53:11 51° N 08:55:52 10° NE
Okean 1 4.0 08:53:27 36° WNW 08:53:27 36° WNW 08:56:47 10° N
Cosmos 1048 Rocket 4.1 08:49:35 10° NNW 08:54:57 83° ENE 09:00:20 10° SSE
CZ-2C R/B 2.9 08:50:46 10° NNE 08:55:15 53° E 08:59:42 10° S
SeaSat 1 3.1 08:51:59 10° SE 08:56:49 58° ENE 09:01:40 10° NNW
Cosmos 1544 3.0 08:53:38 10° N 08:57:17 85° E 09:00:56 10° S
STARLINK-29 3.2 08:56:19 33° NW 08:57:36 67° NE 09:00:50 10° ESE
Cosmos 2298 Rocket 4.4 08:55:59 35° WSW 08:57:42 47° WNW 09:02:51 10° N
STARLINK-1059 3.5 08:57:36 45° WSW 08:58:48 83° NW 09:02:57 10° NE
Cosmos 2150 Rocket 4.3 08:56:58 34° WSW 08:58:58 51° WNW 09:04:17 10° N
Cosmos 1125 Rocket 3.4 08:57:18 24° SSW 09:00:36 83° WNW 09:05:58 10° NNE
Cosmos 1975 2.8 08:59:24 10° NNW 09:03:21 58° W 09:06:18 17° S
STARLINK-1057 3.6 09:02:22 40° WSW 09:03:45 76° NW 09:07:55 10° NE
Cosmos 2227 Rocket 2.4 09:01:38 30° SW 09:04:15 53° WNW 09:09:48 10° NNE
Cosmos 389 Rocket 2.4 09:03:12 27° S 09:05:03 88° W 09:08:38 10° N
Geosat 4.1 09:02:48 10° NNE 09:07:45 59° WNW 09:10:33 25° SW
STARLINK-1034 3.6 09:07:08 35° WSW 09:08:43 69° NW 09:12:52 10° NE
USA 267 4.4 09:05:28 10° NE 09:11:04 32° NNW 09:15:42 14° WNW
PSLV R/B 3.6 09:08:17 10° N 09:12:34 57° WNW 09:15:24 20° SSW
ADEOS 3.5 09:07:24 10° NNE 09:12:39 87° WNW 09:17:52 10° SSW
STARLINK-1068 3.7 09:11:56 31° WSW 09:13:43 64° NW 09:17:51 10° NE
ASTRO E2 4.5 09:15:44 16° SSW 09:16:00 16° SSW 09:18:33 10° SSE
STARLINK-1027 3.9 09:15:23 28° WSW 09:17:26 58° NW 09:21:38 10° NE
Nadezhda 4 Rocket 4.0 09:12:06 10° S 09:18:25 86° W 09:24:48 10° N
Okean 3 3.4 09:15:10 16° SSW 09:18:25 61° W 09:22:33 10° N
Cosmos 2279 Rocket 4.3 09:14:19 10° NNW 09:20:12 45° W 09:26:04 10° SSW
Cosmos 1980 4.3 09:16:09 10° NW 09:21:06 32° WSW 09:26:02 10° SSW
ATLAS 3B R/B 3.3 09:15:35 10° SSW 09:22:03 54° ESE 09:28:30 10° NE
STARLINK-1060 3.9 09:21:30 25° WSW 09:23:42 54° NW 09:27:46 10° NE
ARIANE 5 R/B 4.4 09:24:37 10° NW 09:26:42 12° WNW 09:27:50 12° WNW
MSX 4.2 09:21:42 10° N 09:27:08 44° WNW 09:32:10 12° SW
CZ-4B R/B 4.4 09:24:23 10° NNE 09:28:20 58° E 09:32:04 10° S
STARLINK-1030 4.0 09:26:16 22° W 09:28:41 49° NNW 09:32:44 10° NE
STARLINK-1031 4.2 09:26:43 21° W 09:29:09 45° NNW 09:33:10 10° NE
STARLINK-1020 4.2 09:31:04 19° W 09:33:42 46° NNW 09:37:42 10° NE
ALOS 3.7 09:30:31 10° NNE 09:34:55 39° E 09:39:17 10° SSE
USA 238 DEB 4.2 09:30:07 17° WSW 09:34:57 42° NW 09:41:29 10° NNE
USA 238 4.2 09:30:10 17° WSW 09:35:03 43° NW 09:41:37 10° NNE
SL-16 R/B 2.1 09:31:19 10° NNW 09:36:58 73° WSW 09:42:35 10° SSE
Cosmos 2082 4.0 09:33:15 13° SW 09:38:07 48° WNW 09:43:39 10° NNE
STARLINK-52 3.1 09:35:27 11° WNW 09:38:29 51° SW 09:41:36 10° SE
STARLINK-1052 4.3 09:35:50 17° W 09:38:41 42° NNW 09:42:39 10° NE
STARLINK-1063 4.4 09:36:19 10° SSW 09:40:18 48° SE 09:44:18 10° ENE
CZ-4B R/B 3.0 09:41:13 16° WSW 09:42:01 17° W 09:44:25 10° NW
Okean 1 Rocket 3.9 09:38:39 10° N 09:42:56 54° E 09:47:13 10° SSE
USA 234 3.5 09:38:30 10° SSE 09:44:42 45° SW 09:50:56 10° WNW
STARLINK-1064 4.2 09:41:14 10° SSW 09:45:15 53° SE 09:49:18 10° ENE
Meteor 1-31 Rocket 2.7 09:42:49 10° N 09:46:46 80° WNW 09:50:41 10° SSW
Cosmos 1818 4.1 09:42:36 10° NNW 09:48:01 65° NE 09:53:24 10° SE
STARLINK-1041 4.1 09:46:09 10° SW 09:50:13 59° SE 09:54:18 10° ENE
CZ-4B R/B 3.1 09:48:04 10° NNE 09:52:20 87° E 09:56:47 10° SSW
STARLINK-1038 4.0 09:51:04 10° SW 09:55:10 65° SE 09:59:17 10° NE
COSMO-SKYMED 1 3.4 09:51:56 10° SSE 09:56:10 57° ENE 10:00:26 10° N
FALCON 9 DEB 3.9 09:53:58 10° WNW 09:57:06 32° SW 10:00:12 10° SSE
Cosmos 1867 4.3 09:52:42 10° SSW 09:58:00 57° ESE 10:03:21 10° NE
STARLINK-1046 3.8 09:56:01 10° SW 10:00:07 72° SE 10:04:15 10° NE
ATLAS 5 CENTAUR R/B 1.4 09:54:54 10° SW 10:00:10 84° NW 10:02:29 10° NE
Cosmos 2237 Rocket 3.7 10:00:04 10° WNW 10:03:08 15° W 10:06:12 10° SW
STARLINK-1039 3.7 10:01:00 10° SW 10:05:07 79° SE 10:09:16 10° NE
Cosmos 1674 Rocket 4.0 10:03:17 10° SSW 10:07:30 42° WNW 10:11:42 10° N
Cosmos 1356 4.4 10:05:29 10° NW 10:08:26 27° W 10:11:20 10° SSW
STARLINK-1045 3.7 10:05:57 10° SW 10:10:05 86° SE 10:14:14 10° NE
Cosmos 1627 Rocket 4.5 10:06:35 10° SSW 10:12:41 67° W 10:18:47 10° N
